Regional Weather Roundup
Issued by NWS Portland, ME

Home | Current Version | Previous Version | Text Only | Print | Product List | Glossary On
Versions: 1 2 3 4 5 6 7 8 9 10 11 12 13 14 15 16 17 18 19 20 21 22 23 24 25 26 27 28 29 30 31 32 33 34 35 36 37 38 39 40 41 42 43 44 45 46 47 48 49 50
000
ASUS41 KGYX 251810
RWRGYX
WEATHER ROUNDUP FOR MAINE AND NEW HAMPSHIRE
NATIONAL WEATHER SERVICE GRAY ME
100 PM EST SUN JAN 25 2015

MEZ002-005-006-010-012-015-018-020-021-024-026-027-029-251900-
MAINE

CITY           SKY/WX    TMP DP  RH WIND       PRES   REMARKS
PORTLAND       SUNNY     33   8  35 NW20G28   29.57R
6HR MIN TEMP:  32; 6HR MAX TEMP:  37;

SANFORD        SUNNY     28   7  40 NW18G26   29.60R WCI  16
BAR HARBOR     SUNNY     30  16  55 W9G21     29.48R
WISCASSET      SUNNY     31   7  36 W12G22    29.56R
6HR MIN TEMP:  20; 6HR MAX TEMP:  36; 6HR PCP: TRACE;

ROCKLAND       SUNNY     30   9  40 W15G24    29.52R WCI  19
FRYEBURG       SUNNY     26   2  35 NW17G29   29.59R WCI  13
6HR MIN TEMP:  26; 6HR MAX TEMP:  33; 6HR PCP: TRACE;

LEWISTONAUBURN SUNNY     28   9  43 NW12      29.55R WCI  18
AUGUSTA        SUNNY     26   5  40 NW13      29.55R WCI  15
6HR MIN TEMP:  25; 6HR MAX TEMP:  32; 6HR PCP: TRACE;

WATERVILLE     FAIR      25   3  39 NW14G22   29.52R WCI  13
BANGOR         MOSUNNY   25   5  42 NW15G30   29.50R WCI  13
6HR MIN TEMP:  25; 6HR MAX TEMP:  34; 6HR PCP: TRACE;

GREENVILLE       N/A     14   0  53 NW9G17    29.40R
6HR MIN TEMP:  13; 6HR MAX TEMP:  25; 6HR PCP:  0.01;

MILLINOCKET    SUNNY     22   3  44 W12       29.45R WCI  10
6HR MIN TEMP:  21; 6HR MAX TEMP:  31; 6HR PCP: TRACE;

HOULTON        SUNNY     21   2  43 W21G31    29.32R WCI   5
6HR MIN TEMP:  21; 6HR MAX TEMP:  31; 6HR PCP: TRACE;

PRESQUE ISLE   MOSUNNY   19   0  42 W21G30    29.30R WCI   3
FRENCHVILLE    LGT SNOW   9   1  70 NW20G28   29.27R WCI -10
6HR MIN TEMP:   9; 6HR MAX TEMP:  22; 6HR PCP: TRACE;

CARIBOU        MIX PCPN  17   1  49 W16G35    29.28R WCI   2
6HR MIN TEMP:  17; 6HR MAX TEMP:  28; 6HR PCP:  0.07;

$$

NHZ002-005-008-009-011-012-014-251900-
NEW HAMPSHIRE

CITY           SKY/WX    TMP DP  RH WIND       PRES   REMARKS
PORTSMOUTH     MOSUNNY   31   9  39 W18G25    29.60R WCI  20
ROCHESTER      SUNNY     30   7  37 NW15G23   29.59R WCI  19
6HR MIN TEMP:  27; 6HR MAX TEMP:  32; 6HR PCP: TRACE;

NASHUA         MOSUNNY   34  14  43 NW18G25   29.64R
MANCHESTER     MOSUNNY   32   9  38 NW15G24   29.62R
6HR MIN TEMP:  30; 6HR MAX TEMP:  37; 6HR PCP: TRACE;

CONCORD        SUNNY     29   7  39 NW18G26   29.63R WCI  16
6HR MIN TEMP:  28; 6HR MAX TEMP:  35; 6HR PCP: TRACE;

LACONIA        SUNNY     27   7  43 W14G21    29.60R WCI  15
PLYMOUTH       FAIR      23  10  56 NW15G23   29.65R WCI  10
BERLIN         SUNNY     15   1  53 VRB6G16   29.58R
6HR MIN TEMP:  14; 6HR MAX TEMP:  28; 6HR PCP: TRACE;

WHITEFIELD     MOSUNNY   16   2  54 W14G21    29.63R WCI   2
6HR MIN TEMP:  15; 6HR MAX TEMP:  29; 6HR PCP:  0.01;

JAFFREY        SUNNY     29   3  33 NW14G25   29.61S WCI  18
6HR MIN TEMP:  28; 6HR MAX TEMP:  32; 6HR PCP: TRACE;

KEENE          SUNNY     30   3  31 NW14G21   29.65S WCI  20
LEBANON        SUNNY     24   5  44 NW13G23   29.68R WCI  12
6HR MIN TEMP:  24; 6HR MAX TEMP:  34; 6HR PCP:  0.01;

MT WASHINGTON  BLWGSNOW  -8  -8 100 NW71G79     N/A  VSB 1/16WCI -46
6HR MIN TEMP:  -8; 6HR MAX TEMP:   7; 6HR PCP:  0.18;

$$

VTZ005-007-008-251900-
VERMONT

CITY           SKY/WX    TMP DP  RH WIND       PRES   REMARKS
ST JOHNSBURY     N/A     13   0  56 MISG      29.68R
MONTPELIER     CLOUDY    11   1  64 NW12G21   29.71R WCI  -3
BURLINGTON     PTSUNNY   16   2  54 N14       29.80R WCI   2
$$

MAZ007-012-024-CTZ003-RIZ002-NYZ038-NYZ072-251900-
SOUTHERN NEW ENGLAND AND NY

CITY           SKY/WX    TMP DP  RH WIND       PRES   REMARKS
BOSTON         MOSUNNY   36  18  48 W17G23    29.63R
WORCESTER      MOSUNNY   30  11  45 NW18G28   29.61R WCI  18
NANTUCKET      SUNNY     42  26  53 W23G35    29.62F
PROVIDENCE     MOSUNNY   37  19  48 W17G23    29.66R
HARTFORD       MOSUNNY   34  10  37 NW20G28   29.71R
ALBANY         MOSUNNY   27   8  44 W18       29.79R WCI  14
NEW YORK CITY  PTSUNNY   41  13  31 NW18G31   29.78R
$$

ANZ081-ANZ082-ANZ150-NHZ014-MEZ023>029-251900-
COASTAL MARINE OBSERVATIONS

STATION/POSITION TIME  TEMP    WIND        PRES    WAVE
                       AIR SEA DIR/SP/G            HT/PER
                 (UTC) (F)     (DEG/KT/KT) (MB)    (FT/S)
MOUNT DESERT ROC 1800   32                  997.1R
MATINICUS ROCK   1800          300/ 27/ 29  999.0R
PORTLAND WX BUOY 1750   33 40  310/ 19/ 23 1000.4R   4/14
WELLS            1700   31 36  320/ 14/ 25 1000.9R
ISLE OF SHOALS   1800   32     300/ 23/ 27 1001.5R
JEFFREYS LEDGE   1721      44                N/A     7/ 6
CASHES LEDGE BUO 1750   38 45  280/ 23/ 29  999.0R
$$

.............KEY..............
   WCI - WIND CHILL
   TC  - TEMPERATURE IN CELSIUS
   VSB - VISIBILITY IN MILES
   HX  - HEAT INDEX
   FAIR- INDICATES FEW OR NO CLOUDS BELOW 12,000 FT, WITH NO
         SIGNIFICANT WEATHER AND/OR OBSTRUCTIONS TO VISIBILITY.




USA.gov is the U.S. government's official web portal to all federal, state and local government web resources and services.